• In Belarus
  • List of Countries
  • For 7 days
  • Water Temperature
  • Satellite Maps
  • Weather Map
  • Weather Widgets
  • user-avatar
    Login

    Hourly Weather Gori

    Today, 23 September, Sunday

    Time Temperature Precipitation Wind Pressure Humidity
    00:00 +16°C° 0 mm 1 mps 702 mmHg 80%
    01:00 +16°C° 0 mm 1 mps 702 mmHg 79%
    02:00 +16°C° 0 mm 1 mps 702 mmHg 78%
    03:00 +16°C° 0 mm 1 mps 701 mmHg 75%
    04:00 +15°C° 0 mm 1 mps 701 mmHg 76%
    05:00 +15°C° 0 mm 1 mps 701 mmHg 76%
    06:00 +15°C° 0 mm 1 mps 701 mmHg 76%
    07:00 +18°C° 0 mm 1 mps 702 mmHg 70%
    08:00 +20°C° 0 mm 1 mps 702 mmHg 64%
    09:00 +21°C° 0 mm 2 mps 702 mmHg 58%
    10:00 +23°C° 0.1 mm 2 mps 702 mmHg 55%
    11:00 +24°C° 0.1 mm 2 mps 702 mmHg 52%
    12:00 +26°C° 0.1 mm 2 mps 702 mmHg 49%
    13:00 +26°C° 0.6 mm 2 mps 702 mmHg 49%
    14:00 +26°C° 0.6 mm 2 mps 702 mmHg 49%
    15:00 +26°C° 0 mm 3 mps 702 mmHg 48%
    16:00 +24°C° 0.4 mm 2 mps 702 mmHg 55%
    17:00 +21°C° 0.4 mm 2 mps 702 mmHg 62%
    18:00 +19°C° 0.4 mm 2 mps 702 mmHg 69%
    19:00 +18°C° 0.1 mm 2 mps 702 mmHg 74%
    20:00 +17°C° 0.1 mm 2 mps 702 mmHg 80%
    21:00 +16°C° 0.1 mm 2 mps 702 mmHg 85%
    22:00 +16°C° 0 mm 2 mps 702 mmHg 87%
    23:00 +15°C° 0 mm 2 mps 702 mmHg 89%

    Tomorrow, 24 September, Monday

    Time Temperature Precipitation Wind Pressure Humidity
    00:00 +15°C° 0 mm 2 mps 703 mmHg 90%
    01:00 +15°C° 0 mm 2 mps 703 mmHg 90%
    02:00 +15°C° 0 mm 2 mps 703 mmHg 91%
    03:00 +15°C° 0 mm 2 mps 703 mmHg 91%
    04:00 +15°C° 0 mm 2 mps 703 mmHg 90%
    05:00 +15°C° 0 mm 2 mps 703 mmHg 90%
    06:00 +14°C° 0 mm 2 mps 703 mmHg 89%
    07:00 +17°C° 0 mm 2 mps 703 mmHg 80%
    08:00 +19°C° 0 mm 2 mps 704 mmHg 70%
    09:00 +21°C° 0 mm 2 mps 704 mmHg 60%
    10:00 +23°C° 0 mm 2 mps 704 mmHg 55%
    11:00 +25°C° 0 mm 2 mps 703 mmHg 49%
    12:00 +26°C° 0 mm 2 mps 703 mmHg 44%
    13:00 +26°C° 0 mm 2 mps 703 mmHg 43%
    14:00 +27°C° 0 mm 2 mps 703 mmHg 41%
    15:00 +27°C° 0 mm 2 mps 703 mmHg 40%
    16:00 +25°C° 0 mm 2 mps 702 mmHg 47%
    17:00 +23°C° 0 mm 1 mps 702 mmHg 54%
    18:00 +20°C° 0 mm 1 mps 702 mmHg 61%
    19:00 +20°C° 0 mm 1 mps 702 mmHg 62%
    20:00 +19°C° 0 mm 1 mps 702 mmHg 64%
    21:00 +18°C° 0 mm 1 mps 702 mmHg 65%
    22:00 +18°C° 0 mm 1 mps 702 mmHg 65%
    23:00 +16°C° 0 mm 2 mps 702 mmHg 64%

    Day after tomorrow, 25 September, Tuesday

    Time Temperature Precipitation Wind Pressure Humidity
    00:00 +16°C° 0 mm 2 mps 702 mmHg 63%
    01:00 +16°C° 0 mm 2 mps 701 mmHg 66%
    02:00 +15°C° 0 mm 2 mps 701 mmHg 68%
    03:00 +15°C° 0 mm 2 mps 701 mmHg 70%
    04:00 +15°C° 0 mm 1 mps 701 mmHg 71%
    05:00 +15°C° 0 mm 1 mps 700 mmHg 72%
    06:00 +14°C° 0 mm 1 mps 700 mmHg 73%
    07:00 +17°C° 0 mm 2 mps 700 mmHg 65%
    08:00 +20°C° 0 mm 2 mps 701 mmHg 57%
    09:00 +23°C° 0 mm 2 mps 701 mmHg 48%
    10:00 +25°C° 0 mm 2 mps 701 mmHg 44%
    11:00 +27°C° 0 mm 2 mps 701 mmHg 40%
    12:00 +28°C° 0 mm 2 mps 700 mmHg 36%
    13:00 +29°C° 0 mm 3 mps 700 mmHg 35%
    14:00 +29°C° 0 mm 3 mps 700 mmHg 34%
    15:00 +29°C° 0 mm 4 mps 700 mmHg 33%
    16:00 +26°C° 0 mm 3 mps 700 mmHg 40%
    17:00 +24°C° 0 mm 3 mps 700 mmHg 48%
    18:00 +20°C° 0 mm 2 mps 699 mmHg 55%
    19:00 +19°C° 0 mm 3 mps 700 mmHg 63%
    20:00 +18°C° 0 mm 3 mps 700 mmHg 70%
    21:00 +17°C° 0 mm 3 mps 701 mmHg 78%
    22:00 +17°C° 0 mm 3 mps 701 mmHg 81%
    23:00 +17°C° 0 mm 2 mps 701 mmHg 84%

    26 September, Wednesday

    Time Temperature Precipitation Wind Pressure Humidity
    00:00 +16°C° 0 mm 2 mps 701 mmHg 86%
    01:00 +16°C° 0.1 mm 2 mps 701 mmHg 88%
    02:00 +16°C° 0.1 mm 2 mps 701 mmHg 89%
    03:00 +16°C° 0.1 mm 3 mps 701 mmHg 91%
    04:00 +16°C° 0 mm 3 mps 702 mmHg 90%
    05:00 +16°C° 0 mm 3 mps 702 mmHg 90%
    06:00 +16°C° 0 mm 3 mps 702 mmHg 90%
    07:00 +16°C° 0 mm 3 mps 702 mmHg 85%
    08:00 +17°C° 0 mm 3 mps 702 mmHg 79%
    09:00 +18°C° 0 mm 3 mps 703 mmHg 73%
    10:00 +19°C° 0 mm 4 mps 703 mmHg 68%
    11:00 +20°C° 0 mm 4 mps 703 mmHg 63%
    12:00 +21°C° 0 mm 4 mps 703 mmHg 58%
    13:00 +21°C° 0 mm 4 mps 703 mmHg 57%
    14:00 +21°C° 0 mm 4 mps 703 mmHg 56%
    15:00 +21°C° 0 mm 4 mps 703 mmHg 55%
    16:00 +20°C° 0 mm 3 mps 703 mmHg 62%
    17:00 +18°C° 0 mm 2 mps 703 mmHg 69%
    18:00 +16°C° 0 mm 2 mps 703 mmHg 76%
    19:00 +16°C° 0 mm 1 mps 703 mmHg 79%
    20:00 +15°C° 0 mm 1 mps 703 mmHg 81%
    21:00 +14°C° 0 mm 1 mps 703 mmHg 84%
    22:00 +14°C° 0 mm 1 mps 703 mmHg 83%
    23:00 +14°C° 0 mm 1 mps 703 mmHg 82%

    27 September, Thursday

    Time Temperature Precipitation Wind Pressure Humidity
    00:00 +14°C° 0 mm 1 mps 703 mmHg 82%
    01:00 +14°C° 0.1 mm 1 mps 703 mmHg 82%
    02:00 +14°C° 0.1 mm 1 mps 704 mmHg 81%
    03:00 +14°C° 0.1 mm 1 mps 704 mmHg 81%
    04:00 +14°C° 0 mm 1 mps 704 mmHg 82%
    05:00 +13°C° 0 mm 1 mps 704 mmHg 82%
    06:00 +13°C° 0 mm 1 mps 704 mmHg 82%
    07:00 +15°C° 0 mm 1 mps 704 mmHg 77%
    08:00 +18°C° 0 mm 1 mps 705 mmHg 71%
    09:00 +18°C° 0 mm 2 mps 705 mmHg 65%
    10:00 +19°C° 0 mm 2 mps 705 mmHg 62%
    11:00 +20°C° 0 mm 3 mps 705 mmHg 59%
    12:00 +22°C° 0 mm 3 mps 705 mmHg 56%
    13:00 +22°C° 0 mm 3 mps 705 mmHg 56%
    14:00 +22°C° 0 mm 3 mps 704 mmHg 55%
    15:00 +22°C° 0 mm 3 mps 704 mmHg 55%
    16:00 +21°C° 0 mm 2 mps 704 mmHg 62%
    17:00 +19°C° 0 mm 2 mps 704 mmHg 70%
    18:00 +18°C° 0 mm 1 mps 704 mmHg 77%
    19:00 +18°C° 0 mm 1 mps 704 mmHg 80%
    20:00 +16°C° 0 mm 1 mps 705 mmHg 83%
    21:00 +15°C° 0 mm 1 mps 705 mmHg 86%
    22:00 +15°C° 0 mm 1 mps 705 mmHg 85%
    23:00 +15°C° 0 mm 1 mps 705 mmHg 84%

    28 September, Friday

    Time Temperature Precipitation Wind Pressure Humidity
    00:00 +15°C° 0 mm 1 mps 705 mmHg 83%
    01:00 +15°C° 0 mm 1 mps 705 mmHg 83%
    02:00 +14°C° 0 mm 1 mps 705 mmHg 84%
    03:00 +14°C° 0 mm 1 mps 704 mmHg 84%
    04:00 +14°C° 0 mm 1 mps 704 mmHg 83%
    05:00 +14°C° 0 mm 2 mps 704 mmHg 82%
    06:00 +14°C° 0 mm 2 mps 704 mmHg 81%
    07:00 +16°C° 0 mm 2 mps 704 mmHg 75%
    08:00 +18°C° 0 mm 3 mps 705 mmHg 69%
    09:00 +20°C° 0 mm 3 mps 705 mmHg 63%
    10:00 +21°C° 0 mm 3 mps 704 mmHg 59%
    11:00 +22°C° 0 mm 4 mps 704 mmHg 55%
    12:00 +23°C° 0 mm 4 mps 704 mmHg 51%
    13:00 +25°C° 0 mm 4 mps 703 mmHg 51%
    14:00 +25°C° 0 mm 4 mps 703 mmHg 51%
    15:00 +25°C° 0 mm 4 mps 703 mmHg 50%
    16:00 +22°C° 0 mm 3 mps 703 mmHg 58%
    17:00 +20°C° 0 mm 3 mps 702 mmHg 65%
    18:00 +18°C° 0 mm 2 mps 702 mmHg 72%
    19:00 +18°C° 0 mm 2 mps 702 mmHg 74%
    20:00 +17°C° 0 mm 2 mps 703 mmHg 76%
    21:00 +16°C° 0 mm 2 mps 703 mmHg 78%
    22:00 +16°C° 0 mm 2 mps 703 mmHg 78%
    23:00 +15°C° 0 mm 2 mps 702 mmHg 78%
    Show more